Preview of NWS' New Version of Forecast
This preview is not operational and should not be used for support decisions.
Latest weather observations around

Hartford, Hartford-Brainard Airport (KHFD)

Using International System of Units (Switch to English Units)
Date/ Time (EDT) Wind (kph) Vis. (km) Weather Sky Cond. Temp (°C) Rel. Humidity Wind Chill (°C) Heat Index (°C) Pressure Precip. (cm)
Air Dwpt 6 hour Altimeter (hPa) Sea level (hPa) 1 hr 3 hr 6 hr
Max Min
Sep 15 03:53 Calm 0.4 Fog VV004 18 17     96%     1020.3 1020.3      
Sep 15 03:37 S 5 0.4 Fog VV004 18 17     96%     1020.3        
Sep 15 03:14 Calm 1.21 Fog/Mist VV005 18 18     100%     1020.3        
Sep 15 03:10 Calm 2.01 Fog/Mist SCT005 18 18     97%     1020.3        
Sep 15 03:05 Calm 0.8 Fog VV005 18 18     97%     1020.3        
Sep 15 02:58 Calm 1.61 Fog/Mist VV005 18 18     97%     1020.3        
Sep 15 02:53 Calm 0.8 Fog VV004 19 18     93%     1020.3 1020.3      
Sep 15 02:44 Calm 1.61 Fog/Mist VV004 18 17     93%     1020.3        
Sep 15 02:37 Calm 3.22 Fog/Mist FEW005 18 17     96%     1020.3        
Sep 15 02:15 S 5 4.83 Fog/Mist CLR 19 18     96%     1020.3        
Sep 15 02:03 S 5 2.82 Fog/Mist CLR 19 18     93%     1020.7        
Sep 15 01:53 Calm 12.87 Clear CLR 19 18     96%     1020.7 1020.5     0
Sep 15 00:53 S 5 16.09 Mostly Cloudy FEW025 BKN032 20 19     93%     1021 1020.8      
Sep 14 23:53 S 5 16.09 Cloudy OVC033 21 19     93%     1021.3 1021.1 0    
Sep 14 23:39 S 5 16.09 Cloudy FEW008 SCT026 OVC035 20 19     96%     1021   0    
Sep 14 23:29 S 8 14.48 Cloudy SCT008 BKN026 OVC033 20 19     93%     1021   0    
Sep 14 23:05 SSW 5 12.87 Cloudy BKN008 BKN015 OVC025 20 19     96%     1021.3        
Sep 14 22:53 S 8 14.48 Cloudy BKN010 BKN021 OVC026 20 19     93%     1021 1021.1 0 0  
Sep 14 22:29 S 8 12.87 Cloudy BKN011 BKN021 OVC032 20 19     93%     1021.3   0    
Sep 14 22:02 S 8 12.87 Light Rain FEW012 SCT029 OVC036 20 19     93%     1021.3   0    
Sep 14 21:53 S 9 8.05 Light Rain and Fog/Mist FEW025 BKN029 OVC036 20 19     93%     1021.3 1021.3 0    
Sep 14 21:43 S 11 4.83 Rain and Fog/Mist FEW021 SCT028 OVC036 20 19     93%     1021.7   0    
Sep 14 21:23 S 9 16.09 Cloudy BKN028 OVC039 21 19     90%     1021.3   0    
Sep 14 21:00 S 9 12.87 Light Rain FEW016 SCT028 OVC041 21 19     90%     1021.7   0    
Sep 14 20:53 S 11 12.87 Light Rain SCT018 BKN026 OVC039 21 19     90%     1021.7 1021.5 0    
Sep 14 19:53 SSW 8 16.09 Cloudy OVC021 21 18     84%     1021.3 1021.3 0   0
Sep 14 18:53 S 11 12.87 Light Rain BKN023 OVC029 21 18     87%     1021.3 1021.4 0    
Sep 14 18:22 S 15 14.48 Light Rain BKN024 OVC029 21 18     81%     1021.3   0    
Sep 14 18:07 S 18 16.09 Light Rain BKN028 OVC034 22 17     76%   22 1021.7   0    
Sep 14 17:53 S 17 16.09 Cloudy OVC030 22 17     73%   22 1021.7 1021.7      
Sep 14 16:53 SSW 13 16.09 Cloudy OVC034 22 16     68%   22 1022 1022      
Sep 14 15:53 S 15 16.09 Cloudy BKN030 BKN039 OVC060 22 16     68%   22 1022.7 1022.4      
Sep 14 14:53 S 17 16.09 Cloudy BKN043 OVC050 22 17     73%   22 1023 1023      
Sep 14 13:53 SSW 15 16.09 Cloudy BKN039 OVC050 21 16     71%     1024.1 1024 0   0
Sep 14 12:53 SSW 13 8.05 Light Rain BKN036 BKN043 OVC050 22 15     66%   22 1025.1 1024.9 0    
Sep 14 11:53   16.09 Cloudy SCT036 OVC049 22 14     61%   22 1025.1 1025.1      
Sep 14 10:53 S 13 16.09 Cloudy OVC060 19 16     79%     1026.1 1025.9      
Sep 14 09:53 SSE 5 16.09 Cloudy OVC060 18 14     81%     1026.8 1026.7      
Sep 14 08:53 Calm 16.09 Cloudy OVC065 16 12     78%     1027.4 1027.3      
Sep 14 07:53 Calm 16.09 Cloudy FEW050 OVC070 14 11     83%     1027.4 1027.5      
Sep 14 06:53 Calm 16.09 Cloudy BKN060 OVC070 13 10     80%     1028.1 1028.2      
Sep 14 05:53 Calm 16.09 Mostly Cloudy BKN075 12 10     89%     1028.1 1028.1      
Sep 14 04:53 Calm 16.09 Cloudy OVC070 12 10     89%     1028.1 1028      
Sep 14 03:53 Calm 16.09 Cloudy OVC080 12 9     83%     1028.8 1028.6      
Sep 14 02:53 Calm 16.09 Cloudy FEW039 OVC075 12 9     83%     1029.1 1029.1      
Sep 14 01:53 E 8 16.09 Mostly Cloudy BKN038 11 9     86%     1029.8 1029.8      
Sep 14 00:53 Calm 16.09 Mostly Clear FEW036 11 9     89%     1031.2 1031      
Sep 13 23:53 Calm 16.09 Clear CLR 12 9     83%     1031.2 1030.9      
Sep 13 22:53 Calm 16.09 Clear CLR 13 8     72%     1031.2 1031.2      
Sep 13 21:53 SSE 5 16.09 Clear   14 8     67%     1031.5 1031.3      
Sep 13 20:53 SSE 9 16.09 Clear CLR 15 10     72%     1031.2 1031      
Sep 13 19:53 S 11 16.09 Clear CLR 17 11     67%     1030.8 1030.8      
Sep 13 18:53 SSE 11 16.09 Clear CLR 18 9     58%     1030.8 1030.7      
Sep 13 17:53 SE 9 16.09 Clear CLR 21 7     42%     1031.2 1031      
Sep 13 16:53 SE 8 16.09 Mostly Cloudy BKN055 21 8     45%     1031.2 1031      
Sep 13 15:53 SE 11 16.09 Clear CLR 21 8     45%     1030.8 1030.9      
Sep 13 14:53 5 16.09 Mostly Cloudy BKN055 21 8     45%     1031.5 1031.4      
Sep 13 13:53 8 16.09 Partly Cloudy SCT050 21 9     47%     1031.8 1031.6      
Sep 13 12:53 NNE 11 16.09 Mostly Cloudy BKN045 BKN050 20 10     53%     1032.2 1032.1      
Sep 13 12:02 8 16.09 Mostly Cloudy BKN043 BKN050 19 9     52%     1032.2        
Sep 13 11:53 SSE 13 16.09 Mostly Cloudy FEW038 BKN043 BKN049 19 10     55%     1032.5 1032.3      
Sep 13 10:53 N 8 16.09 Partly Cloudy SCT009 18 11     65%     1032.9 1032.7      
Sep 13 09:57 N 8 16.09 Mostly Clear FEW009 16 11     70%     1032.9        
Sep 13 09:53 N 11 16.09 Clear CLR 16 11     72%     1032.9 1032.7      
Sep 13 08:53 NNW 8 16.09 Partly Cloudy SCT009 14 11     83%     1032.2 1032.2      
Sep 13 08:25 NNW 11 16.09 Partly Cloudy SCT009 13 11     86%     1031.8        
Sep 13 07:53 N 8 16.09 Cloudy OVC006 13 11     89%     1031.2 1031.1      
Sep 13 07:12 N 11 16.09 Cloudy OVC007 12 11     93%     1030.8        
Sep 13 06:53 N 11 6.44 Fog/Mist OVC004 12 12     97%     1030.5 1030.3      
Sep 13 06:50 N 11 6.44 Fog/Mist OVC004 12 12     100%     1030.1        
Sep 13 05:53 N 11 9.66 Fog/Mist OVC003 12 11     93%     1029.8 1029.6      
Sep 13 05:30 NNE 17 4.83 Fog/Mist OVC002 12 12     97%     1029.1        
Sep 13 05:19 NE 9 2.01 Fog/Mist OVC002 12 12     97%     1029.1        
Sep 13 04:53 5 0.8 Fog VV002 12 12     100%     1028.5 1028.5      
Sep 13 04:35 E 8 1.21 Fog/Mist VV002 12 11     96%     1028.5        
Sep 13 04:28 E 9 1.61 Fog/Mist VV002 12 11     96%     1028.5        
Sep 13 03:53 NNE 11 0.8 Fog VV002 12 12     97%     1028.1 1028.1      
Sep 13 03:39 N 11 0.8 Fog VV002 12 12     97%     1028.1        
Sep 13 03:32 N 8 1.61 Fog/Mist BKN002 OVC006 12 11     93%     1028.1        
Sep 13 03:27 N 11 4.02 Fog/Mist OVC004 12 11     93%     1028.1        
Sep 13 03:07 NNE 9 16.09 Mostly Cloudy BKN007 12 11     90%     1027.8        
Sep 13 02:53 NE 8 16.09 Mostly Clear FEW007 12 11     90%     1027.8 1027.6      
Sep 13 01:53 NNE 8 16.09 Clear CLR 12 11     90%     1027.4 1027.4      
Sep 13 00:53 NE 8 16.09 Partly Cloudy SCT050 13 11     89%     1026.8 1026.8      
Sep 12 23:53 NNE 9 16.09 Mostly Cloudy BKN046 13 12     90%     1026.4 1026.3      
Sep 12 22:53 N 9 16.09 Clear CLR 14 12     87%     1026.4 1026.2      
Sep 12 21:53 NNE 8 16.09 Clear CLR 14 12     87%     1026.1 1025.9      
Sep 12 20:53 N 9 16.09 Mostly Cloudy BKN055 16 12     80%     1025.1 1025.1      
Sep 12 19:53 N 11 16.09 Cloudy OVC035 16 13     81%     1024.4 1024.3      
Sep 12 19:35 N 13 16.09 Cloudy OVC030 16 13     81%     1024.4        
Sep 12 18:53 N 13 16.09 Cloudy OVC025 17 14     84%     1023.4 1023.3      
Sep 12 17:53 N 17 14.48 Cloudy OVC021 17 15     90%     1022.4 1022.3      
Sep 12 17:32 N 18 12.87 Cloudy FEW008 OVC023 17 15     90%     1022.4        
Sep 12 16:53 N 18 16.09 Cloudy FEW010 BKN020 OVC025 17 15     87%     1021.7 1021.4      
Sep 12 16:24 N 18 16.09 Cloudy BKN021 OVC026 18 16     87%     1021.3        
Sep 12 16:06 N 13 11.27 Partly Cloudy FEW008 SCT021 18 16     87%     1021        
Sep 12 15:53 N 18 8.05 Fog/Mist SCT008 OVC019 18 16     87%     1020.7 1020.6      
Sep 12 14:53 N 15 16.09 Cloudy OVC008 17 16     90%     1020.3 1020.1      
Sep 12 14:43 N 18 16.09 Cloudy OVC008 17 16     90%     1020        
Sep 12 14:33   16.09 Cloudy BKN010 OVC013 17 16     90%     1020        
Sep 12 14:17 N 17 6.44 Fog/Mist BKN008 OVC018 17 16     93%     1020.3        
Sep 12 13:53 N 22 3.22 Fog/Mist BKN006 OVC018 18 16     90%     1020 1020.1 0   0
Sep 12 13:06 N 22 3.22 Light Rain and Fog/Mist BKN007 OVC012 19 17     90%     1019.7   0    
Sep 12 12:53 ENE 9 3.22 Light Rain and Fog/Mist OVC014 19 18     90%     1019.7 1019.5 0    
Sep 12 12:32 N 13 16.09 Cloudy BKN014 OVC021 20 18     87%     1019.7        
Sep 12 11:53 ENE 13 16.09 Cloudy FEW010 BKN017 OVC023 21 18     84%     1019.3 1019.2 0    
Sep 12 11:19 NNE 9 16.09 Cloudy SCT009 OVC020 21 18     87%     1019   0    
Sep 12 10:53 N 13 9.66 Light Rain and Fog/Mist BKN006 OVC014 21 19     90%     1019 1019 0 0  
Sep 12 10:46 N 13 6.44 Light Rain and Fog/Mist BKN006 BKN014 OVC038 21 19     90%     1019   0    
Sep 12 10:39 N 11 3.22 Light Rain and Fog/Mist SCT006 BKN014 OVC038 21 19     93%     1019   0    
Sep 12 10:35 NE 11 2.82 Rain and Fog/Mist FEW008 BKN016 OVC037 20 19     93%     1018.6   0    
Sep 12 10:25 N 15 4.02 Light Rain and Fog/Mist FEW006 BKN015 OVC033 20 18     90%     1019.3   0    
Sep 12 10:19 N 15 4.83 Light Rain and Fog/Mist FEW005 BKN015 OVC033 20 18     90%     1019.3   0    
Sep 12 09:53 N 15 8.05 Fog/Mist FEW009 FEW012 OVC033 19 18     93%     1018.6 1018.7 0    
Sep 12 09:36 N 11 6.44 Light Rain and Fog/Mist FEW008 BKN035 OVC045 20 18     90%     1018.6   0    
Sep 12 09:23 N 13 3.22 Light Rain and Fog/Mist SCT006 BKN035 OVC045 20 18     90%     1018.3   0    
Sep 12 09:20 N 9 2.82 Light Rain and Fog/Mist BKN006 BKN016 OVC045 19 18     93%     1018.3   0    
Sep 12 08:53 NNE 8 11.27 Light Rain BKN005 BKN037 OVC075 19 18     93%     1018.3 1018.1 0    
Sep 12 08:46 NE 9 8.05 Light Rain and Fog/Mist BKN006 BKN039 OVC050 19 18     93%     1018.3   0    
Sep 12 08:38 NNE 9 3.22 Rain and Fog/Mist FEW006 BKN044 OVC075 19 18     93%     1018.3   0    
Sep 12 08:32 NNE 11 2.01 Heavy Rain and Fog/Mist BKN040 BKN055 OVC075 19 18     93%     1018   0    
Sep 12 07:53 NNW 15 6.44 Rain and Fog/Mist FEW040 OVC049 20 18     90%     1018.3 1018.2 0   0
Sep 12 07:42 NNW 11 3.22 Heavy Rain and Fog/Mist FEW040 BKN048 OVC060 20 18     87%     1018.3   0    
Sep 12 06:53 N 9 16.09 Cloudy BKN065 OVC100 21 19     90%     1016.6 1016.7      
Sep 12 06:28 NNE 9 14.48 Mostly Cloudy FEW006 SCT065 BKN110 21 19     90%     1016.6        
Sep 12 05:53 N 9 9.66 Fog/Mist FEW085 BKN120 21 19     93%     1015.6 1015.7      
Sep 12 05:09 Calm 9.66 Fog/Mist SCT003 BKN095 20 19     93%     1015.9        
Sep 12 05:00 Calm 3.22 Fog/Mist SCT005 SCT090 19 19     97%     1015.9        
Sep 12 04:53 Calm 1.61 Fog/Mist VV005 19 19     97%     1015.9 1015.7      
Sep 12 04:48 Calm 0.8 Fog VV005 19 19     100%     1015.9        
Sep 12 04:41 Calm 1.61 Fog/Mist VV005 19 19     97%     1015.9        
Sep 12 04:33 Calm 3.22 Fog/Mist FEW007 20 19     93%     1015.9        
Sep 12 04:11 Calm 2.82 Fog/Mist CLR 19 19     97%     1015.6        
Sep 12 03:53 Calm 4.83 Fog/Mist FEW005 20 19     96%     1015.9 1015.8      
Sep 12 03:47 Calm 3.22 Fog/Mist FEW005 19 19     100%     1015.6        
May 15 04:53 S 8 6.44 Clear   15 14     96%     1011.2 1011      
May 14 13:53 SSE 13 16.09 Clear CLR 19 13     66%     1014.6 1014.4      
May 14 04:31 S 5 16.09 Cloudy BKN012 OVC028 11 9     89%     1016.3        
May 12 08:53 N 5 16.09 Cloudy OVC055 12 3     54%     1022 1022      
May 12 01:53 Calm 16.09 Mostly Clear FEW120 13 2     47%     1020.7 1020.6      
May 12 00:53 NNE 8 16.09 Clear CLR 13 3     51%     1021 1020.8      
May 11 21:53 N 8 16.09 Clear CLR 17 -2     28%     1019.3 1019.3      
May 11 15:53 N 13 16.09 Clear CLR 21 2     30%     1015.6 1015.5      
May 11 11:53 NW 21 16.09 Mostly Clear FEW040 18 3     38%     1015.6 1015.4      
Jun 11 10:53 8 16.09 Clear CLR 29 17     49%   29 1016.3 1016.3      
Jun 10 18:53   16.09 Clear   26 14     47%   26 1013.6 1013.4      
Jun 10 12:51 SW 13 16.09 Mostly Cloudy BKN075 28 13     40%   28 1014.2        
Jun 10 08:53 E 5 16.09 Clear CLR 22 13     59%   21 1014.9 1014.8      
Jun 09 22:53 S 5 16.09 Clear CLR 16 13     81%     1010.5 1010.3      
Jun 08 01:53 Calm 16.09 Clear CLR 12 10     89%     1016.6 1016.5      
Jun 07 09:53 NNE 17 16.09 Cloudy OVC060 15 9     69%     1015.6 1015.4      
Jun 07 08:53 N 13 16.09 Cloudy SCT055 BKN070 OVC080 14 10     77%     1015.2 1015.2      
Jun 06 14:53 N 15 9.66 Light Rain and Fog/Mist BKN014 OVC019 11 9     92%     1009.8 1009.9 0    
Notice The following observation data may not be complete
Jun 06 08:11   4.02 Light Rain and Fog/Mist BKN007 OVC014          %         0    
Jun 06 07:49 N 17 4.02 Light Rain and Fog/Mist OVC012 11 9     87%     1008.8   0